Location: Peebles
(55.6412°N, 3.1714°W)
Time: 09:07:06
(UTC+01:00)

FENGYUN 1C DEB - Pass Details

Date: 03 July 2022
Orbit: 749 x 887 km, 98.1° (Epoch: 08 August)

Event Time Altitude Azimuth Distance (km) Brightness Sun altitude
Rises 03:25:26 0° 13° (NNE) 3,509 ? -6.8°
Reaches altitude 10° 03:27:54 10° 9° (N) 2,567 ? -6.6°
Maximum altitude 03:33:27 53° 295° (WNW) 1,083 ? -6.2°
Drops below altitude 10° 03:38:54 10° 220° (SW) 2,519 ? -5.8°
Enters shadow 03:39:39 - 218° (SW) 2,798 ? -5.7°
